Time,TemperatureF,DewpointF,PressureIn,WindDirection,WindDirectionDegrees,WindSpeedMPH,WindSpeedGustMPH,Humidity,HourlyPrecipIn,Conditions,Clouds,dailyrainin,SoftwareType,DateUTC
2013-09-28 00:02:00,72.3,61.2,29.76,SSE,148,3.0,8.0,68,0.00,,CLR,0.00,VWS V14.01,2013-09-28 05:02:00,
2013-09-28 00:07:00,72.2,61.1,29.76,SSE,155,2.0,8.0,68,0.00,,CLR,0.00,VWS V14.01,2013-09-28 05:07:00,
2013-09-28 00:12:00,71.9,61.2,29.76,SE,131,4.0,9.0,69,0.00,,CLR,0.00,VWS V14.01,2013-09-28 05:12:00,
2013-09-28 00:17:00,71.9,61.2,29.76,SSE,167,3.0,9.0,69,0.00,,CLR,0.00,VWS V14.01,2013-09-28 05:17:00,
2013-09-28 00:22:00,71.8,61.1,29.75,SE,145,4.0,9.0,69,0.00,,CLR,0.00,VWS V14.01,2013-09-28 05:22:00,
2013-09-28 00:27:00,71.9,60.8,29.75,SSW,203,3.0,4.0,68,0.00,,CLR,0.00,VWS V14.01,2013-09-28 05:27:00,
2013-09-28 00:32:00,71.9,60.8,29.75,SSW,198,6.0,8.0,68,0.00,,CLR,0.00,VWS V14.01,2013-09-28 05:32:00,
2013-09-28 00:37:00,71.9,60.8,29.75,SE,128,2.0,8.0,68,0.00,,CLR,0.00,VWS V14.01,2013-09-28 05:37:00,
2013-09-28 00:42:00,71.8,60.7,29.75,ESE,110,4.0,8.0,68,0.00,,CLR,0.00,VWS V14.01,2013-09-28 05:42:00,
2013-09-28 00:47:00,71.9,60.8,29.74,ESE,120,3.0,10.0,68,0.00,,CLR,0.00,VWS V14.01,2013-09-28 05:47:00,
2013-09-28 00:52:00,71.8,60.7,29.74,South,169,3.0,10.0,68,0.00,,CLR,0.00,VWS V14.01,2013-09-28 05:52:00,
2013-09-28 00:57:00,71.7,60.6,29.74,SE,128,6.0,6.0,68,0.00,,CLR,0.00,VWS V14.01,2013-09-28 05:57:00,
2013-09-28 01:02:00,71.7,60.6,29.74,SSE,150,2.0,7.0,68,0.00,,CLR,0.00,VWS V14.01,2013-09-28 06:02:00,
2013-09-28 01:07:00,71.6,60.5,29.74,SE,139,3.0,10.0,68,0.00,,CLR,0.00,VWS V14.01,2013-09-28 06:07:00,
2013-09-28 01:12:00,71.6,60.1,29.74,SE,128,2.0,10.0,67,0.00,,CLR,0.00,VWS V14.01,2013-09-28 06:12:00,
2013-09-28 01:17:00,71.6,60.1,29.74,SE,142,3.0,10.0,67,0.00,,CLR,0.00,VWS V14.01,2013-09-28 06:17:00,
2013-09-28 01:22:00,71.5,60.0,29.74,ESE,117,3.0,10.0,67,0.00,,CLR,0.00,VWS V14.01,2013-09-28 06:22:00,
2013-09-28 01:27:00,71.5,60.0,29.74,SSE,148,4.0,4.0,67,0.00,,CLR,0.00,VWS V14.01,2013-09-28 06:27:00,
2013-09-28 01:32:00,71.5,60.0,29.73,SE,146,3.0,9.0,67,0.00,,CLR,0.00,VWS V14.01,2013-09-28 06:32:00,
2013-09-28 01:37:00,71.5,60.0,29.73,SE,128,3.0,10.0,67,0.00,,CLR,0.00,VWS V14.01,2013-09-28 06:37:00,
2013-09-28 01:42:00,71.4,59.9,29.73,East,96,4.0,10.0,67,0.00,,CLR,0.00,VWS V14.01,2013-09-28 06:42:00,
2013-09-28 01:47:00,71.3,59.8,29.73,SE,134,3.0,10.0,67,0.00,,CLR,0.00,VWS V14.01,2013-09-28 06:47:00,
2013-09-28 01:52:00,71.3,59.8,29.73,South,176,6.0,11.0,67,0.00,,CLR,0.00,VWS V14.01,2013-09-28 06:52:00,
2013-09-28 01:57:00,71.3,59.8,29.73,ESE,116,7.0,7.0,67,0.00,,CLR,0.00,VWS V14.01,2013-09-28 06:57:00,
2013-09-28 02:02:00,71.2,59.7,29.73,South,169,4.0,9.0,67,0.00,,CLR,0.00,VWS V14.01,2013-09-28 07:02:00,
2013-09-28 02:07:00,71.2,59.7,29.73,SSE,147,10.0,12.0,67,0.00,,CLR,0.00,VWS V14.01,2013-09-28 07:07:00,
2013-09-28 02:12:00,71.1,59.6,29.73,SSW,193,6.0,13.0,67,0.00,,CLR,0.00,VWS V14.01,2013-09-28 07:12:00,
2013-09-28 02:17:00,71.1,59.6,29.72,SE,145,2.0,13.0,67,0.00,,CLR,0.00,VWS V14.01,2013-09-28 07:17:00,
2013-09-28 02:22:00,71.0,59.5,29.72,South,181,2.0,13.0,67,0.00,,CLR,0.00,VWS V14.01,2013-09-28 07:22:00,
2013-09-28 02:27:00,70.9,59.4,29.72,SSE,160,3.0,4.0,67,0.00,,CLR,0.00,VWS V14.01,2013-09-28 07:27:00,
2013-09-28 02:32:00,70.7,59.6,29.72,SSW,193,6.0,6.0,68,0.00,,CLR,0.00,VWS V14.01,2013-09-28 07:32:00,
2013-09-28 02:37:00,70.7,59.6,29.72,SSE,153,4.0,14.0,68,0.00,,CLR,0.00,VWS V14.01,2013-09-28 07:37:00,
2013-09-28 02:42:00,70.6,59.5,29.73,SSE,156,3.0,14.0,68,0.00,,CLR,0.00,VWS V14.01,2013-09-28 07:42:00,
2013-09-28 02:47:00,70.5,59.4,29.73,South,179,3.0,14.0,68,0.00,,CLR,0.00,VWS V14.01,2013-09-28 07:47:00,
2013-09-28 02:52:00,70.3,59.7,29.72,SSE,155,4.0,14.0,69,0.00,,CLR,0.00,VWS V14.01,2013-09-28 07:52:00,
2013-09-28 02:57:00,70.2,59.6,29.72,SE,128,7.0,14.0,69,0.00,,CLR,0.00,VWS V14.01,2013-09-28 07:57:00,
2013-09-28 03:02:00,70.1,59.5,29.72,East,82,3.0,12.0,69,0.00,,CLR,0.00,VWS V14.01,2013-09-28 08:02:00,
2013-09-28 03:07:00,70.0,59.4,29.71,SSE,165,9.0,12.0,69,0.00,,CLR,0.00,VWS V14.01,2013-09-28 08:07:00,
2013-09-28 03:12:00,69.8,59.2,29.71,SE,139,5.0,12.0,69,0.00,,CLR,0.00,VWS V14.01,2013-09-28 08:12:00,
2013-09-28 03:17:00,69.9,59.3,29.71,South,188,4.0,12.0,69,0.00,,CLR,0.00,VWS V14.01,2013-09-28 08:17:00,
2013-09-28 03:22:00,69.7,59.1,29.71,SE,132,3.0,12.0,69,0.00,,CLR,0.00,VWS V14.01,2013-09-28 08:22:00,
2013-09-28 03:27:00,69.5,59.3,29.71,SE,134,4.0,12.0,70,0.00,,CLR,0.00,VWS V14.01,2013-09-28 08:27:00,
2013-09-28 03:32:00,69.3,59.1,29.71,SE,136,2.0,8.0,70,0.00,,SCT120,0.00,VWS V14.01,2013-09-28 08:32:00,
2013-09-28 03:37:00,69.1,58.9,29.70,East,100,4.0,8.0,70,0.00,,SCT120,0.00,VWS V14.01,2013-09-28 08:37:00,
2013-09-28 03:42:00,68.9,59.1,29.70,ESE,120,2.0,10.0,71,0.00,,SCT120,0.00,VWS V14.01,2013-09-28 08:42:00,
2013-09-28 03:47:00,68.8,59.0,29.70,SSW,210,8.0,10.0,71,0.00,,CLR,0.00,VWS V14.01,2013-09-28 08:47:00,
2013-09-28 03:52:00,68.8,59.0,29.70,ESE,120,2.0,10.0,71,0.00,,SCT120,0.00,VWS V14.01,2013-09-28 08:52:00,
2013-09-28 03:57:00,68.6,58.8,29.70,ESE,120,2.0,10.0,71,0.00,,SCT120,0.00,VWS V14.01,2013-09-28 08:57:00,
2013-09-28 04:02:00,68.5,58.7,29.70,SE,143,2.0,8.0,71,0.00,,SCT120,0.00,VWS V14.01,2013-09-28 09:02:00,
2013-09-28 04:07:00,68.5,59.1,29.70,SE,146,3.0,8.0,72,0.00,,SCT120,0.00,VWS V14.01,2013-09-28 09:07:00,
2013-09-28 04:12:00,68.6,59.2,29.70,SSE,148,4.0,9.0,72,0.00,,SCT120,0.00,VWS V14.01,2013-09-28 09:12:00,
2013-09-28 04:17:00,68.6,58.8,29.70,SSE,155,3.0,9.0,71,0.00,,SCT120,0.00,VWS V14.01,2013-09-28 09:17:00,
2013-09-28 04:22:00,68.5,59.1,29.69,SSE,160,3.0,9.0,72,0.00,,SCT120,0.00,VWS V14.01,2013-09-28 09:22:00,
2013-09-28 04:27:00,68.4,59.0,29.69,SSE,158,2.0,10.0,72,0.00,,SCT120,0.00,VWS V14.01,2013-09-28 09:27:00,
2013-09-28 04:32:00,68.3,58.9,29.69,SE,138,2.0,7.0,72,0.00,,BKN120,0.00,VWS V14.01,2013-09-28 09:32:00,
2013-09-28 04:37:00,68.2,58.8,29.69,SE,142,4.0,9.0,72,0.00,,BKN120,0.00,VWS V14.01,2013-09-28 09:37:00,
2013-09-28 04:42:00,68.1,59.1,29.69,SE,136,6.0,9.0,73,0.00,,BKN120,0.00,VWS V14.01,2013-09-28 09:42:00,
2013-09-28 04:47:00,68.0,59.0,29.68,East,94,6.0,9.0,73,0.00,,SCT120,0.00,VWS V14.01,2013-09-28 09:47:00,
2013-09-28 04:52:00,68.0,59.0,29.68,SSE,155,5.0,9.0,73,0.00,,OVC110,0.00,VWS V14.01,2013-09-28 09:52:00,
2013-09-28 04:57:00,68.0,59.0,29.68,ESE,117,4.0,9.0,73,0.00,,OVC110,0.00,VWS V14.01,2013-09-28 09:57:00,
2013-09-28 05:02:00,68.0,59.0,29.68,ESE,104,7.0,7.0,73,0.00,,OVC110,0.00,VWS V14.01,2013-09-28 10:02:00,
2013-09-28 05:08:00,68.1,59.1,29.68,SSE,165,4.0,9.0,73,0.00,,OVC110,0.00,VWS V14.01,2013-09-28 10:08:00,
2013-09-28 05:13:00,68.1,59.1,29.68,ESE,120,4.0,11.0,73,0.00,,OVC110,0.00,VWS V14.01,2013-09-28 10:13:00,
2013-09-28 05:18:00,68.0,59.4,29.67,South,171,7.0,11.0,74,0.00,,OVC110,0.00,VWS V14.01,2013-09-28 10:18:00,
2013-09-28 05:23:00,68.2,59.6,29.67,SSE,159,6.0,14.0,74,0.00,,OVC110,0.00,VWS V14.01,2013-09-28 10:23:00,
2013-09-28 05:28:00,68.3,59.3,29.67,SSE,156,8.0,8.0,73,0.00,,OVC110,0.00,VWS V14.01,2013-09-28 10:28:00,
2013-09-28 05:33:00,68.2,59.2,29.67,ESE,112,4.0,8.0,73,0.00,,BKN110,0.00,VWS V14.01,2013-09-28 10:33:00,
2013-09-28 05:38:00,68.2,59.2,29.67,East,97,4.0,10.0,73,0.00,,BKN110,0.00,VWS V14.01,2013-09-28 10:38:00,
2013-09-28 05:43:00,68.2,59.6,29.67,SSE,147,3.0,13.0,74,0.00,,BKN110,0.00,VWS V14.01,2013-09-28 10:43:00,
2013-09-28 05:48:00,68.2,59.6,29.67,SE,141,9.0,13.0,74,0.00,,BKN110,0.00,VWS V14.01,2013-09-28 10:48:00,
2013-09-28 05:53:00,68.2,59.6,29.66,South,191,3.0,13.0,74,0.00,,BKN110,0.00,VWS V14.01,2013-09-28 10:53:00,
2013-09-28 05:58:00,68.2,59.6,29.66,SE,145,6.0,6.0,74,0.00,,BKN110,0.00,VWS V14.01,2013-09-28 10:58:00,
2013-09-28 06:03:00,68.1,59.5,29.66,SSW,193,8.0,11.0,74,0.00,,BKN110,0.00,VWS V14.01,2013-09-28 11:03:00,
2013-09-28 06:08:00,68.1,59.5,29.66,South,171,5.0,13.0,74,0.00,,BKN110,0.00,VWS V14.01,2013-09-28 11:08:00,
2013-09-28 06:13:00,68.1,59.5,29.66,South,188,5.0,13.0,74,0.00,,BKN110,0.00,VWS V14.01,2013-09-28 11:13:00,
2013-09-28 06:18:00,68.1,59.5,29.66,SSE,153,5.0,13.0,74,0.00,,BKN110,0.00,VWS V14.01,2013-09-28 11:18:00,
2013-09-28 06:23:00,68.0,59.4,29.66,SSE,160,4.0,13.0,74,0.00,,BKN110,0.00,VWS V14.01,2013-09-28 11:23:00,
2013-09-28 06:28:00,68.0,59.4,29.66,SSE,148,4.0,5.0,74,0.00,,BKN110,0.00,VWS V14.01,2013-09-28 11:28:00,
2013-09-28 06:33:00,68.0,59.4,29.65,South,171,9.0,14.0,74,0.00,,BKN110,0.00,VWS V14.01,2013-09-28 11:33:00,
2013-09-28 06:38:00,68.0,59.4,29.65,SSW,194,6.0,14.0,74,0.00,,BKN110,0.00,VWS V14.01,2013-09-28 11:38:00,
2013-09-28 06:43:00,67.9,59.7,29.64,SSE,155,6.0,14.0,75,0.00,,BKN110,0.00,VWS V14.01,2013-09-28 11:43:00,
2013-09-28 06:48:00,68.0,59.4,29.64,SSE,148,7.0,14.0,74,0.00,,BKN110,0.00,VWS V14.01,2013-09-28 11:48:00,
2013-09-28 06:53:00,68.0,59.4,29.65,SE,128,5.0,14.0,74,0.00,,BKN110,0.00,VWS V14.01,2013-09-28 11:53:00,
2013-09-28 06:58:00,68.0,59.8,29.65,SE,133,4.0,9.0,75,0.00,,BKN100,0.00,VWS V14.01,2013-09-28 11:58:00,
2013-09-28 07:03:00,68.0,59.8,29.65,SSW,194,7.0,9.0,75,0.00,,BKN100,0.00,VWS V14.01,2013-09-28 12:03:00,
2013-09-28 07:08:00,68.0,59.8,29.64,SE,145,7.0,17.0,75,0.00,,BKN110,0.00,VWS V14.01,2013-09-28 12:08:00,
2013-09-28 07:13:00,67.9,59.7,29.64,SSE,153,2.0,17.0,75,0.00,,BKN110,0.00,VWS V14.01,2013-09-28 12:13:00,
2013-09-28 07:18:00,67.9,59.7,29.64,SE,126,4.0,17.0,75,0.00,,BKN110,0.00,VWS V14.01,2013-09-28 12:18:00,
2013-09-28 07:23:00,67.9,59.7,29.64,ESE,108,8.0,17.0,75,0.00,,BKN110,0.00,VWS V14.01,2013-09-28 12:23:00,
2013-09-28 07:28:00,67.9,59.7,29.63,SSE,150,3.0,6.0,75,0.00,,BKN110,0.00,VWS V14.01,2013-09-28 12:28:00,
2013-09-28 07:33:00,67.9,59.7,29.63,SE,139,4.0,10.0,75,0.00,,BKN110,0.00,VWS V14.01,2013-09-28 12:33:00,
2013-09-28 07:38:00,67.9,59.7,29.62,SSW,201,4.0,10.0,75,0.00,,BKN110,0.00,VWS V14.01,2013-09-28 12:38:00,
2013-09-28 07:43:00,68.0,59.8,29.62,ESE,110,6.0,11.0,75,0.00,,BKN110,0.00,VWS V14.01,2013-09-28 12:43:00,
2013-09-28 07:48:00,68.0,59.8,29.62,SSE,147,7.0,11.0,75,0.00,,SCT085,0.00,VWS V14.01,2013-09-28 12:48:00,
2013-09-28 07:53:00,68.1,59.9,29.62,SSE,160,3.0,11.0,75,0.00,,SCT085,0.00,VWS V14.01,2013-09-28 12:53:00,
2013-09-28 07:58:00,68.0,59.8,29.62,ESE,109,2.0,11.0,75,0.00,,SCT085,0.00,VWS V14.01,2013-09-28 12:58:00,
2013-09-28 08:03:00,68.1,59.9,29.62,SSE,160,4.0,11.0,75,0.00,,SCT085,0.00,VWS V14.01,2013-09-28 13:03:00,
2013-09-28 08:08:00,68.1,59.9,29.61,SE,139,5.0,12.0,75,0.00,,SCT085,0.00,VWS V14.01,2013-09-28 13:08:00,
2013-09-28 08:13:00,68.1,59.9,29.61,SSE,163,8.0,12.0,75,0.00,,SCT085,0.00,VWS V14.01,2013-09-28 13:13:00,
2013-09-28 08:18:00,68.1,59.9,29.60,South,184,6.0,12.0,75,0.00,,SCT085,0.00,VWS V14.01,2013-09-28 13:18:00,
2013-09-28 08:23:00,68.2,60.0,29.60,ESE,112,5.0,12.0,75,0.00,,SCT085,0.00,VWS V14.01,2013-09-28 13:23:00,
2013-09-28 08:28:00,68.3,60.1,29.61,SSE,167,3.0,5.0,75,0.00,,SCT085,0.00,VWS V14.01,2013-09-28 13:28:00,
2013-09-28 08:33:00,68.3,60.1,29.61,SSW,193,4.0,11.0,75,0.00,,SCT085,0.00,VWS V14.01,2013-09-28 13:33:00,
2013-09-28 08:38:00,68.4,60.2,29.61,SSW,197,4.0,12.0,75,0.00,,SCT085,0.00,VWS V14.01,2013-09-28 13:38:00,
2013-09-28 08:43:00,68.4,60.2,29.60,SSE,160,5.0,12.0,75,0.00,,SCT085,0.00,VWS V14.01,2013-09-28 13:43:00,
2013-09-28 08:48:00,68.5,60.3,29.60,South,184,3.0,12.0,75,0.00,,OVC085,0.00,VWS V14.01,2013-09-28 13:48:00,
2013-09-28 08:53:00,68.6,60.4,29.60,South,176,4.0,14.0,75,0.00,,OVC085,0.00,VWS V14.01,2013-09-28 13:53:00,
2013-09-28 08:58:00,68.7,60.1,29.60,SSE,163,5.0,8.0,74,0.00,,OVC085,0.00,VWS V14.01,2013-09-28 13:58:00,
2013-09-28 09:03:00,68.8,60.2,29.60,East,98,5.0,14.0,74,0.00,,OVC085,0.00,VWS V14.01,2013-09-28 14:03:00,
2013-09-28 09:08:00,68.8,60.2,29.59,South,189,8.0,14.0,74,0.00,,OVC085,0.00,VWS V14.01,2013-09-28 14:08:00,
2013-09-28 09:13:00,68.7,60.1,29.59,SSE,156,7.0,14.0,74,0.00,,OVC085,0.00,VWS V14.01,2013-09-28 14:13:00,
2013-09-28 09:18:00,68.5,60.3,29.59,SSE,151,5.0,14.0,75,0.00,,OVC085,0.00,VWS V14.01,2013-09-28 14:18:00,
2013-09-28 09:23:00,68.5,60.3,29.59,SW,215,6.0,14.0,75,0.00,,OVC085,0.00,VWS V14.01,2013-09-28 14:23:00,
2013-09-28 09:28:00,68.4,60.2,29.59,SSE,156,9.0,9.0,75,0.00,,OVC085,0.00,VWS V14.01,2013-09-28 14:28:00,
2013-09-28 09:33:00,68.3,60.5,29.59,SSW,193,4.0,12.0,76,0.00,,OVC065,0.00,VWS V14.01,2013-09-28 14:33:00,
2013-09-28 09:38:00,67.8,60.7,29.59,South,189,6.0,12.0,78,0.00,,OVC065,0.00,VWS V14.01,2013-09-28 14:38:00,
2013-09-28 09:43:00,67.5,60.8,29.58,SSE,150,6.0,12.0,79,0.00,,OVC065,0.00,VWS V14.01,2013-09-28 14:43:00,
2013-09-28 09:48:00,67.4,61.0,29.58,ESE,116,2.0,12.0,80,0.00,,-RA,0.00,VWS V14.01,2013-09-28 14:48:00,
2013-09-28 09:53:00,67.3,60.9,29.58,SSW,197,2.0,15.0,80,0.00,,-RA,0.00,VWS V14.01,2013-09-28 14:53:00,
2013-09-28 09:59:00,67.3,60.9,29.58,South,189,2.0,9.0,80,0.00,,-RA,0.00,VWS V14.01,2013-09-28 14:59:00,
2013-09-28 10:04:00,67.2,60.8,29.57,SE,142,1.0,10.0,80,0.00,,-RA,0.00,VWS V14.01,2013-09-28 15:04:00,
2013-09-28 10:09:00,67.1,60.7,29.57,ESE,118,2.0,10.0,80,0.00,,-RA,0.00,VWS V14.01,2013-09-28 15:09:00,
2013-09-28 10:14:00,67.1,60.7,29.57,SSE,166,9.0,12.0,80,0.00,,-RA,0.00,VWS V14.01,2013-09-28 15:14:00,
2013-09-28 10:19:00,67.1,61.1,29.57,South,173,6.0,12.0,81,0.00,,-RA,0.00,VWS V14.01,2013-09-28 15:19:00,
2013-09-28 10:24:00,67.0,61.0,29.56,SSE,148,0.0,12.0,81,0.00,,-RA,0.00,VWS V14.01,2013-09-28 15:24:00,
2013-09-28 10:29:00,66.8,61.1,29.56,SSW,193,3.0,7.0,82,0.00,,-RA,0.00,VWS V14.01,2013-09-28 15:29:00,
2013-09-28 10:34:00,66.6,61.3,29.56,South,181,5.0,8.0,83,0.00,,-RA,0.00,VWS V14.01,2013-09-28 15:34:00,
2013-09-28 10:39:00,66.1,61.5,29.56,SSW,195,3.0,10.0,85,0.04,,-RA,0.04,VWS V14.01,2013-09-28 15:39:00,
2013-09-28 10:44:00,65.4,61.4,29.56,South,191,4.0,10.0,87,0.06,,-RA,0.06,VWS V14.01,2013-09-28 15:44:00,
2013-09-28 10:49:00,65.0,61.7,29.56,South,186,2.0,10.0,89,0.06,,-RA,0.06,VWS V14.01,2013-09-28 15:49:00,
2013-09-28 10:54:00,64.7,61.7,29.56,SW,223,3.0,10.0,90,0.07,,-RA,0.07,VWS V14.01,2013-09-28 15:54:00,
2013-09-28 10:59:00,64.5,61.8,29.56,SSE,158,3.0,5.0,91,0.07,,-RA,0.07,VWS V14.01,2013-09-28 15:59:00,
2013-09-28 11:04:00,64.3,61.6,29.56,SSW,193,4.0,10.0,91,0.09,,-RA,0.09,VWS V14.01,2013-09-28 16:04:00,
2013-09-28 11:09:00,64.1,61.7,29.56,SSW,195,2.0,10.0,92,0.09,,-RA,0.09,VWS V14.01,2013-09-28 16:09:00,
2013-09-28 11:14:00,64.1,62.0,29.56,SE,134,3.0,10.0,93,0.10,,-RA,0.10,VWS V14.01,2013-09-28 16:14:00,
2013-09-28 11:19:00,63.9,61.8,29.56,South,176,3.0,10.0,93,0.12,,-RA,0.12,VWS V14.01,2013-09-28 16:19:00,
2013-09-28 11:24:00,63.9,61.8,29.56,South,177,2.0,10.0,93,0.13,,-RA,0.13,VWS V14.01,2013-09-28 16:24:00,
2013-09-28 11:29:00,64.0,62.2,29.56,South,172,4.0,8.0,94,0.14,,-RA,0.14,VWS V14.01,2013-09-28 16:29:00,
2013-09-28 11:34:00,64.0,62.2,29.56,South,174,3.0,8.0,94,0.14,,-RA,0.14,VWS V14.01,2013-09-28 16:34:00,
2013-09-28 11:39:00,64.0,62.2,29.56,SSE,160,8.0,11.0,94,0.14,,-RA,0.14,VWS V14.01,2013-09-28 16:39:00,
2013-09-28 11:44:00,64.1,62.3,29.55,South,187,5.0,11.0,94,0.14,,-RA,0.14,VWS V14.01,2013-09-28 16:44:00,
2013-09-28 11:49:00,64.1,62.3,29.55,SE,124,3.0,11.0,94,0.15,,-RA,0.15,VWS V14.01,2013-09-28 16:49:00,
2013-09-28 11:54:00,64.2,62.7,29.55,South,172,2.0,11.0,95,0.15,,-RA,0.15,VWS V14.01,2013-09-28 16:54:00,
2013-09-28 11:59:00,64.3,62.8,29.55,South,173,5.0,7.0,95,0.08,,-RA,0.15,VWS V14.01,2013-09-28 16:59:00,
2013-09-28 12:04:00,64.3,62.8,29.55,SSW,210,5.0,13.0,95,0.08,,-RA,0.15,VWS V14.01,2013-09-28 17:04:00,
2013-09-28 12:09:00,64.4,62.9,29.55,WSW,250,7.0,13.0,95,0.08,,-RA,0.15,VWS V14.01,2013-09-28 17:09:00,
2013-09-28 12:14:00,64.0,61.9,29.57,West,271,9.0,22.0,93,0.09,,-RA,0.16,VWS V14.01,2013-09-28 17:14:00,
2013-09-28 12:19:00,61.2,57.9,29.59,West,278,7.0,22.0,89,0.09,,-RA,0.16,VWS V14.01,2013-09-28 17:19:00,
2013-09-28 12:24:00,58.7,55.2,29.59,West,276,20.0,27.0,88,0.10,,-RA,0.17,VWS V14.01,2013-09-28 17:24:00,
2013-09-28 12:29:00,56.7,53.8,29.60,WSW,242,15.0,23.0,90,0.03,,-RA,0.17,VWS V14.01,2013-09-28 17:29:00,
2013-09-28 12:34:00,55.8,53.5,29.61,West,270,12.0,23.0,92,0.03,,-RA,0.17,VWS V14.01,2013-09-28 17:34:00,
2013-09-28 12:39:00,55.3,53.3,29.61,West,259,14.0,23.0,93,0.04,,-RA,0.18,VWS V14.01,2013-09-28 17:39:00,
2013-09-28 12:44:00,54.9,52.9,29.61,West,271,15.0,23.0,93,0.04,,-RA,0.18,VWS V14.01,2013-09-28 17:44:00,
2013-09-28 12:49:00,54.6,52.9,29.62,WNW,283,12.0,23.0,94,0.04,,-RA,0.18,VWS V14.01,2013-09-28 17:49:00,
2013-09-28 12:54:00,54.4,52.7,29.62,WNW,290,8.0,23.0,94,0.04,,-RA,0.18,VWS V14.01,2013-09-28 17:54:00,
2013-09-28 12:59:00,54.2,52.5,29.63,West,275,9.0,13.0,94,0.04,,-RA,0.19,VWS V14.01,2013-09-28 17:59:00,
2013-09-28 13:04:00,54.1,52.7,29.63,West,269,11.0,18.0,95,0.07,,-RA,0.22,VWS V14.01,2013-09-28 18:04:00,
2013-09-28 13:09:00,54.1,52.7,29.63,West,270,9.0,18.0,95,0.09,,-RA,0.24,VWS V14.01,2013-09-28 18:09:00,
2013-09-28 13:14:00,54.1,52.7,29.62,WNW,293,5.0,18.0,95,0.10,,-RA,0.25,VWS V14.01,2013-09-28 18:14:00,
2013-09-28 13:19:00,54.2,52.8,29.62,WNW,295,5.0,18.0,95,0.10,,-RA,0.25,VWS V14.01,2013-09-28 18:19:00,
2013-09-28 13:24:00,54.2,52.8,29.63,West,281,8.0,18.0,95,0.10,,-RA,0.25,VWS V14.01,2013-09-28 18:24:00,
2013-09-28 13:29:00,54.2,52.8,29.63,WNW,290,7.0,12.0,95,0.08,,-RA,0.25,VWS V14.01,2013-09-28 18:29:00,
2013-09-28 13:34:00,54.2,52.8,29.64,West,266,8.0,13.0,95,0.08,,-RA,0.25,VWS V14.01,2013-09-28 18:34:00,
2013-09-28 13:39:00,54.3,52.9,29.64,WNW,295,5.0,13.0,95,0.08,,-RA,0.25,VWS V14.01,2013-09-28 18:39:00,
2013-09-28 13:44:00,54.3,52.9,29.65,WSW,252,3.0,13.0,95,0.08,,-RA,0.25,VWS V14.01,2013-09-28 18:44:00,
2013-09-28 13:49:00,54.3,52.9,29.65,West,264,4.0,13.0,95,0.09,,-RA,0.26,VWS V14.01,2013-09-28 18:49:00,
2013-09-28 13:54:00,54.3,52.6,29.66,WNW,287,8.0,15.0,94,0.09,,-RA,0.26,VWS V14.01,2013-09-28 18:54:00,
2013-09-28 13:59:00,54.3,52.6,29.67,West,279,4.0,12.0,94,0.08,,-RA,0.27,VWS V14.01,2013-09-28 18:59:00,
2013-09-28 14:04:00,54.3,52.6,29.66,West,278,9.0,12.0,94,0.08,,-RA,0.27,VWS V14.01,2013-09-28 19:04:00,
2013-09-28 14:09:00,54.4,52.7,29.66,WNW,290,9.0,12.0,94,0.08,,-RA,0.27,VWS V14.01,2013-09-28 19:09:00,
2013-09-28 14:14:00,54.5,52.8,29.66,WNW,282,4.0,13.0,94,0.09,,-RA,0.28,VWS V14.01,2013-09-28 19:14:00,
2013-09-28 14:19:00,54.6,52.9,29.67,West,277,4.0,13.0,94,0.09,,-RA,0.28,VWS V14.01,2013-09-28 19:19:00,
2013-09-28 14:24:00,54.6,52.9,29.67,West,269,3.0,13.0,94,0.09,,-RA,0.28,VWS V14.01,2013-09-28 19:24:00,
2013-09-28 14:29:00,54.8,53.1,29.68,West,271,7.0,8.0,94,0.03,,-RA,0.28,VWS V14.01,2013-09-28 19:29:00,
2013-09-28 14:34:00,54.9,53.2,29.68,SW,232,6.0,10.0,94,0.03,,-RA,0.28,VWS V14.01,2013-09-28 19:34:00,
2013-09-28 14:39:00,55.0,53.3,29.68,WSW,248,7.0,11.0,94,0.03,,-RA,0.28,VWS V14.01,2013-09-28 19:39:00,
2013-09-28 14:44:00,55.1,53.1,29.69,West,281,5.0,12.0,93,0.03,,-RA,0.28,VWS V14.01,2013-09-28 19:44:00,
2013-09-28 14:49:00,55.2,53.5,29.69,West,264,2.0,12.0,94,0.03,,OVC085,0.28,VWS V14.01,2013-09-28 19:49:00,
2013-09-28 14:54:00,55.3,53.3,29.68,WSW,246,4.0,12.0,93,0.03,,OVC085,0.28,VWS V14.01,2013-09-28 19:54:00,
2013-09-28 14:59:00,55.4,53.7,29.69,West,260,3.0,5.0,94,0.02,,OVC085,0.28,VWS V14.01,2013-09-28 19:59:00,
2013-09-28 15:04:00,55.8,54.4,29.70,West,281,3.0,5.0,95,0.02,,OVC085,0.28,VWS V14.01,2013-09-28 20:04:00,
2013-09-28 15:09:00,56.1,54.4,29.70,SW,218,4.0,7.0,94,0.02,,OVC085,0.28,VWS V14.01,2013-09-28 20:09:00,
2013-09-28 15:14:00,56.3,54.3,29.70,WSW,240,6.0,8.0,93,0.02,,OVC085,0.28,VWS V14.01,2013-09-28 20:14:00,
2013-09-28 15:19:00,56.4,54.1,29.70,West,278,4.0,11.0,92,0.02,,OVC085,0.28,VWS V14.01,2013-09-28 20:19:00,
2013-09-28 15:24:00,56.4,54.1,29.70,West,267,3.0,11.0,92,0.02,,OVC085,0.28,VWS V14.01,2013-09-28 20:24:00,
2013-09-28 15:29:00,56.5,53.9,29.71,WNW,284,5.0,11.0,91,0.00,,OVC085,0.28,VWS V14.01,2013-09-28 20:29:00,
2013-09-28 15:34:00,56.7,54.1,29.71,West,275,8.0,11.0,91,0.00,,OVC035,0.28,VWS V14.01,2013-09-28 20:34:00,
2013-09-28 15:39:00,57.0,54.4,29.70,WNW,300,3.0,11.0,91,0.00,,OVC035,0.28,VWS V14.01,2013-09-28 20:39:00,
2013-09-28 15:44:00,57.4,54.8,29.70,SW,214,10.0,11.0,91,0.00,,OVC035,0.28,VWS V14.01,2013-09-28 20:44:00,
2013-09-28 15:49:00,57.6,54.7,29.70,WSW,248,2.0,11.0,90,0.00,,OVC046,0.28,VWS V14.01,2013-09-28 20:49:00,
2013-09-28 15:54:00,57.6,54.4,29.70,WSW,248,4.0,11.0,89,0.00,,OVC046,0.28,VWS V14.01,2013-09-28 20:54:00,
2013-09-28 15:59:00,57.8,54.6,29.71,SSW,198,4.0,8.0,89,0.00,,OVC046,0.28,VWS V14.01,2013-09-28 20:59:00,
2013-09-28 16:04:00,58.0,54.5,29.71,SW,225,8.0,10.0,88,0.00,,OVC046,0.28,VWS V14.01,2013-09-28 21:04:00,
2013-09-28 16:09:00,58.3,54.8,29.72,SW,215,4.0,10.0,88,0.00,,OVC046,0.28,VWS V14.01,2013-09-28 21:09:00,
2013-09-28 16:14:00,58.8,54.3,29.71,West,269,4.0,11.0,85,0.00,,OVC046,0.28,VWS V14.01,2013-09-28 21:14:00,
2013-09-28 16:19:00,59.0,54.2,29.72,West,278,6.0,13.0,84,0.00,,OVC046,0.28,VWS V14.01,2013-09-28 21:19:00,
2013-09-28 16:24:00,58.7,53.6,29.72,WSW,248,3.0,15.0,83,0.00,,OVC046,0.28,VWS V14.01,2013-09-28 21:24:00,
2013-09-28 16:29:00,58.5,53.4,29.72,West,280,5.0,11.0,83,0.00,,OVC046,0.28,VWS V14.01,2013-09-28 21:29:00,
2013-09-28 16:34:00,58.4,53.3,29.73,West,264,9.0,16.0,83,0.00,,OVC041,0.28,VWS V14.01,2013-09-28 21:34:00,
2013-09-28 16:39:00,58.3,52.2,29.73,WNW,285,8.0,17.0,80,0.00,,OVC041,0.28,VWS V14.01,2013-09-28 21:39:00,
2013-09-28 16:44:00,58.3,52.5,29.73,West,278,4.0,17.0,81,0.00,,OVC041,0.28,VWS V14.01,2013-09-28 21:44:00,
2013-09-28 16:49:00,58.4,52.6,29.74,West,259,5.0,17.0,81,0.00,,OVC050,0.28,VWS V14.01,2013-09-28 21:49:00,
2013-09-28 16:54:00,58.4,52.3,29.74,West,266,5.0,17.0,80,0.00,,OVC050,0.28,VWS V14.01,2013-09-28 21:54:00,
2013-09-28 16:59:00,58.2,52.1,29.74,West,278,5.0,9.0,80,0.00,,OVC050,0.28,VWS V14.01,2013-09-28 21:59:00,
2013-09-28 17:04:00,58.0,51.9,29.74,West,274,3.0,11.0,80,0.00,,OVC050,0.28,VWS V14.01,2013-09-28 22:04:00,
2013-09-28 17:09:00,57.9,52.1,29.74,West,276,5.0,12.0,81,0.00,,OVC045,0.28,VWS V14.01,2013-09-28 22:09:00,
2013-09-28 17:14:00,57.9,52.1,29.75,WNW,285,7.0,12.0,81,0.00,,OVC045,0.28,VWS V14.01,2013-09-28 22:14:00,
2013-09-28 17:19:00,57.9,51.8,29.75,WNW,282,5.0,12.0,80,0.00,,OVC050,0.28,VWS V14.01,2013-09-28 22:19:00,
2013-09-28 17:24:00,57.9,51.8,29.75,West,274,6.0,12.0,80,0.00,,OVC050,0.28,VWS V14.01,2013-09-28 22:24:00,
2013-09-28 17:29:00,57.8,51.7,29.75,West,271,2.0,8.0,80,0.00,,OVC050,0.28,VWS V14.01,2013-09-28 22:29:00,
2013-09-28 17:34:00,57.6,51.8,29.76,West,275,2.0,8.0,81,0.00,,OVC060,0.28,VWS V14.01,2013-09-28 22:34:00,
2013-09-28 17:39:00,57.6,51.8,29.76,West,263,3.0,9.0,81,0.00,,OVC060,0.28,VWS V14.01,2013-09-28 22:39:00,
2013-09-28 17:44:00,57.5,51.7,29.76,WNW,295,3.0,9.0,81,0.00,,OVC060,0.28,VWS V14.01,2013-09-28 22:44:00,
2013-09-28 17:49:00,57.4,51.6,29.76,West,277,4.0,9.0,81,0.00,,OVC060,0.28,VWS V14.01,2013-09-28 22:49:00,
2013-09-28 17:54:00,57.4,51.6,29.77,SSW,212,3.0,9.0,81,0.00,,OVC060,0.28,VWS V14.01,2013-09-28 22:54:00,
2013-09-28 17:59:00,57.3,51.5,29.77,West,271,6.0,7.0,81,0.00,,OVC060,0.28,VWS V14.01,2013-09-28 22:59:00,
2013-09-28 18:04:00,57.2,51.4,29.77,West,278,9.0,9.0,81,0.00,,OVC060,0.28,VWS V14.01,2013-09-28 23:04:00,
2013-09-28 18:09:00,57.1,51.3,29.77,West,270,4.0,9.0,81,0.00,,OVC060,0.28,VWS V14.01,2013-09-28 23:09:00,
2013-09-28 18:15:00,57.1,51.7,29.77,WSW,246,5.0,9.0,82,0.00,,OVC060,0.28,VWS V14.01,2013-09-28 23:15:00,
2013-09-28 18:20:00,57.0,51.6,29.78,WSW,243,3.0,9.0,82,0.00,,OVC060,0.28,VWS V14.01,2013-09-28 23:20:00,
2013-09-28 18:25:00,56.9,51.5,29.78,West,269,4.0,9.0,82,0.00,,OVC060,0.28,VWS V14.01,2013-09-28 23:25:00,
2013-09-28 18:30:00,56.9,51.5,29.78,West,264,2.0,7.0,82,0.00,,OVC060,0.28,VWS V14.01,2013-09-28 23:30:00,
2013-09-28 18:35:00,57.0,50.9,29.78,West,276,7.0,10.0,80,0.00,,OVC048,0.28,VWS V14.01,2013-09-28 23:35:00,
2013-09-28 18:39:00,57.3,50.8,29.79,WNW,285,5.0,10.0,79,0.00,,OVC048,0.28,VWS V14.01,2013-09-28 23:39:00,
2013-09-28 18:44:00,57.3,50.5,29.79,West,269,3.0,10.0,78,0.00,,OVC048,0.28,VWS V14.01,2013-09-28 23:44:00,
2013-09-28 18:49:00,57.2,50.4,29.79,WSW,258,1.0,10.0,78,0.00,,OVC050,0.28,VWS V14.01,2013-09-28 23:49:00,
2013-09-28 18:54:00,57.0,50.6,29.80,West,267,3.0,10.0,79,0.00,,OVC050,0.28,VWS V14.01,2013-09-28 23:54:00,
2013-09-28 18:59:00,56.8,50.7,29.80,West,262,2.0,6.0,80,0.00,,OVC050,0.28,VWS V14.01,2013-09-28 23:59:00,
2013-09-28 19:04:00,56.5,50.4,29.80,West,276,3.0,6.0,80,0.00,,OVC050,0.28,VWS V14.01,2013-09-29 00:04:00,
2013-09-28 19:09:00,56.2,50.5,29.80,WSW,252,3.0,6.0,81,0.00,,OVC046,0.28,VWS V14.01,2013-09-29 00:09:00,
2013-09-28 19:14:00,56.0,49.9,29.81,West,275,5.0,12.0,80,0.00,,OVC046,0.28,VWS V14.01,2013-09-29 00:14:00,
2013-09-28 19:19:00,55.8,49.7,29.81,WSW,252,2.0,12.0,80,0.00,,OVC046,0.28,VWS V14.01,2013-09-29 00:19:00,
2013-09-28 19:24:00,55.5,49.4,29.81,WSW,257,4.0,12.0,80,0.00,,OVC046,0.28,VWS V14.01,2013-09-29 00:24:00,
2013-09-28 19:30:00,55.4,49.3,29.81,WNW,294,6.0,9.0,80,0.00,,OVC046,0.28,VWS V14.01,2013-09-29 00:30:00,
2013-09-28 19:34:00,55.3,49.2,29.82,WNW,290,5.0,9.0,80,0.00,,OVC120,0.28,VWS V14.01,2013-09-29 00:34:00,
2013-09-28 19:39:00,55.0,49.0,29.82,WSW,253,6.0,9.0,80,0.00,,OVC120,0.28,VWS V14.01,2013-09-29 00:39:00,
2013-09-28 19:44:00,54.9,49.2,29.82,West,264,5.0,9.0,81,0.00,,OVC120,0.28,VWS V14.01,2013-09-29 00:44:00,
2013-09-28 19:49:00,54.6,49.2,29.83,West,269,3.0,9.0,82,0.00,,BKN120,0.28,VWS V14.01,2013-09-29 00:49:00,
2013-09-28 19:55:00,54.4,49.0,29.83,WSW,239,7.0,9.0,82,0.00,,BKN120,0.28,VWS V14.01,2013-09-29 00:55:00,
2013-09-28 20:00:00,54.4,48.7,29.83,West,274,4.0,8.0,81,0.00,,BKN120,0.28,VWS V14.01,2013-09-29 01:00:00,
2013-09-28 20:05:00,54.3,48.6,29.83,SW,224,2.0,9.0,81,0.00,,BKN120,0.28,VWS V14.01,2013-09-29 01:05:00,
2013-09-28 20:10:00,54.3,48.6,29.84,West,270,6.0,9.0,81,0.00,,BKN120,0.28,VWS V14.01,2013-09-29 01:10:00,
2013-09-28 20:15:00,54.2,48.5,29.84,WSW,246,5.0,9.0,81,0.00,,BKN120,0.28,VWS V14.01,2013-09-29 01:15:00,
2013-09-28 20:20:00,54.0,48.3,29.84,West,273,2.0,9.0,81,0.00,,BKN120,0.28,VWS V14.01,2013-09-29 01:20:00,
2013-09-28 20:25:00,53.8,48.1,29.85,West,273,5.0,9.0,81,0.00,,BKN120,0.28,VWS V14.01,2013-09-29 01:25:00,
2013-09-28 20:30:00,53.8,48.1,29.85,WNW,287,2.0,7.0,81,0.00,,BKN120,0.28,VWS V14.01,2013-09-29 01:30:00,
2013-09-28 20:35:00,53.6,47.9,29.85,West,270,5.0,7.0,81,0.00,,BKN110,0.28,VWS V14.01,2013-09-29 01:35:00,
2013-09-28 20:40:00,53.5,47.8,29.86,WNW,285,2.0,7.0,81,0.00,,BKN110,0.28,VWS V14.01,2013-09-29 01:40:00,
2013-09-28 20:45:00,53.3,48.0,29.86,West,267,2.0,7.0,82,0.00,,BKN110,0.28,VWS V14.01,2013-09-29 01:45:00,
2013-09-28 20:51:00,53.2,47.9,29.86,West,275,2.0,7.0,82,0.00,,BKN110,0.28,VWS V14.01,2013-09-29 01:51:00,
2013-09-28 20:56:00,53.0,47.7,29.86,West,262,1.0,7.0,82,0.00,,BKN120,0.28,VWS V14.01,2013-09-29 01:56:00,
2013-09-28 21:01:00,52.9,47.6,29.86,West,277,3.0,4.0,82,0.00,,BKN110,0.28,VWS V14.01,2013-09-29 02:01:00,
2013-09-28 21:06:00,52.7,47.4,29.86,WNW,288,2.0,6.0,82,0.00,,BKN110,0.28,VWS V14.01,2013-09-29 02:06:00,
2013-09-28 21:11:00,52.5,47.2,29.86,West,274,2.0,6.0,82,0.00,,BKN110,0.28,VWS V14.01,2013-09-29 02:11:00,
2013-09-28 21:16:00,52.3,47.0,29.86,West,264,1.0,6.0,82,0.00,,BKN120,0.28,VWS V14.01,2013-09-29 02:16:00,
2013-09-28 21:21:00,52.1,46.8,29.86,WSW,257,2.0,6.0,82,0.00,,BKN110,0.28,VWS V14.01,2013-09-29 02:21:00,
2013-09-28 21:26:00,52.0,47.0,29.86,WSW,257,0.0,6.0,83,0.00,,BKN110,0.28,VWS V14.01,2013-09-29 02:26:00,
2013-09-28 21:31:00,51.4,46.7,29.86,WSW,257,0.0,0.0,84,0.00,,BKN110,0.28,VWS V14.01,2013-09-29 02:31:00,
2013-09-28 21:36:00,51.0,46.3,29.86,WSW,257,0.0,0.0,84,0.00,,BKN110,0.28,VWS V14.01,2013-09-29 02:36:00,
2013-09-28 21:41:00,50.8,46.5,29.86,WSW,257,0.0,0.0,85,0.00,,BKN110,0.28,VWS V14.01,2013-09-29 02:41:00,
2013-09-28 21:46:00,50.6,46.3,29.86,WSW,257,0.0,0.0,85,0.00,,BKN110,0.28,VWS V14.01,2013-09-29 02:46:00,
2013-09-28 21:51:00,50.4,46.4,29.86,WSW,257,0.0,0.0,86,0.00,,BKN110,0.28,VWS V14.01,2013-09-29 02:51:00,
2013-09-28 21:56:00,50.2,46.2,29.86,WSW,257,0.0,0.0,86,0.00,,BKN110,0.28,VWS V14.01,2013-09-29 02:56:00,
2013-09-28 22:01:00,50.0,46.3,29.87,WSW,257,0.0,0.0,87,0.00,,BKN110,0.28,VWS V14.01,2013-09-29 03:01:00,
2013-09-28 22:06:00,49.7,46.0,29.87,WSW,257,0.0,0.0,87,0.00,,BKN110,0.28,VWS V14.01,2013-09-29 03:06:00,
2013-09-28 22:11:00,49.5,46.1,29.87,WSW,257,0.0,0.0,88,0.00,,BKN110,0.28,VWS V14.01,2013-09-29 03:11:00,
2013-09-28 22:16:00,49.3,46.2,29.86,WSW,257,0.0,0.0,89,0.00,,BKN110,0.28,VWS V14.01,2013-09-29 03:16:00,
2013-09-28 22:21:00,49.0,45.9,29.86,WSW,257,0.0,0.0,89,0.00,,BKN110,0.28,VWS V14.01,2013-09-29 03:21:00,
2013-09-28 22:26:00,48.8,46.0,29.86,WSW,257,0.0,0.0,90,0.00,,BKN110,0.28,VWS V14.01,2013-09-29 03:26:00,
2013-09-28 22:31:00,48.6,45.8,29.86,WSW,255,0.0,1.0,90,0.00,,SCT110,0.28,VWS V14.01,2013-09-29 03:31:00,
2013-09-28 22:36:00,48.5,46.0,29.86,WSW,255,0.0,1.0,91,0.00,,BKN110,0.28,VWS V14.01,2013-09-29 03:36:00,
2013-09-28 22:42:00,48.3,45.8,29.86,WSW,255,0.0,1.0,91,0.00,,BKN110,0.28,VWS V14.01,2013-09-29 03:42:00,
2013-09-28 22:47:00,48.2,45.7,29.86,WSW,255,0.0,1.0,91,0.00,,BKN110,0.28,VWS V14.01,2013-09-29 03:47:00,
2013-09-28 22:52:00,48.0,45.5,29.86,WSW,255,0.0,1.0,91,0.00,,BKN110,0.28,VWS V14.01,2013-09-29 03:52:00,
2013-09-28 22:57:00,47.9,45.4,29.86,WSW,255,0.0,1.0,91,0.00,,BKN110,0.28,VWS V14.01,2013-09-29 03:57:00,
2013-09-28 23:01:00,47.7,45.5,29.86,WSW,255,0.0,0.0,92,0.00,,BKN110,0.28,VWS V14.01,2013-09-29 04:01:00,
2013-09-28 23:06:00,47.6,45.4,29.87,WSW,255,0.0,0.0,92,0.00,,BKN110,0.28,VWS V14.01,2013-09-29 04:06:00,
2013-09-28 23:11:00,47.6,45.7,29.87,WSW,255,0.0,1.0,93,0.00,,BKN110,0.28,VWS V14.01,2013-09-29 04:11:00,
2013-09-28 23:16:00,47.4,45.2,29.87,WSW,245,0.0,1.0,92,0.00,,BKN110,0.28,VWS V14.01,2013-09-29 04:16:00,
2013-09-28 23:21:00,47.2,45.0,29.87,WSW,245,0.0,1.0,92,0.00,,BKN110,0.28,VWS V14.01,2013-09-29 04:21:00,
2013-09-28 23:26:00,47.2,45.3,29.87,WSW,245,0.0,1.0,93,0.00,,BKN110,0.28,VWS V14.01,2013-09-29 04:26:00,
2013-09-28 23:31:00,47.1,45.2,29.87,WSW,245,0.0,0.0,93,0.00,,SCT110,0.28,VWS V14.01,2013-09-29 04:31:00,
2013-09-28 23:36:00,47.1,45.2,29.87,WSW,246,0.0,0.0,93,0.00,,SCT110,0.28,VWS V14.01,2013-09-29 04:36:00,
2013-09-28 23:41:00,47.1,45.2,29.87,WSW,245,0.0,0.0,93,0.00,,SCT110,0.28,VWS V14.01,2013-09-29 04:41:00,
2013-09-28 23:46:00,47.2,45.3,29.87,WSW,240,0.0,0.0,93,0.00,,SCT110,0.28,VWS V14.01,2013-09-29 04:46:00,
2013-09-28 23:51:00,47.2,45.3,29.87,WSW,240,0.0,0.0,93,0.00,,BKN110,0.28,VWS V14.01,2013-09-29 04:51:00,
2013-09-28 23:56:00,47.2,45.3,29.87,WSW,245,0.0,0.0,93,0.00,,SCT110,0.28,VWS V14.01,2013-09-29 04:56:00,